This is the latest recevied weather packets stored in our database for station/object VR2HK-13. If no packets are shown the sender has not sent any weather packets the latest 10 day(s).
| Time | Temp. | Humidity | Pressure | Rain* | Wind** | Luminosity | Snow |
|---|---|---|---|---|---|---|---|
| 1777612301 | 25° C | 73% | 1014.8 hPa | 30.23 mm | - | - | - |
| 1777612150 | 25° C | 72% | 1014.8 hPa | 30.48 mm | - | - | - |
| 1777611991 | 25° C | 74% | 1014.8 hPa | 29.97 mm | - | - | - |
| 1777611850 | 24.44° C | 74% | 1014.8 hPa | 28.7 mm | - | - | - |
| 1777611680 | 24.44° C | 72% | 1014.9 hPa | 27.69 mm | - | - | - |
| 1777611549 | 25° C | 72% | 1015 hPa | 27.43 mm | - | - | - |
| 1777611370 | 25° C | 72% | 1014.9 hPa | 28.45 mm | - | - | - |
| 1777611249 | 25.56° C | 72% | 1014.9 hPa | 28.19 mm | - | - | - |
| 1777611061 | 25.56° C | 71% | 1015 hPa | 27.18 mm | - | - | - |
| 1777610949 | 25.56° C | 72% | 1015 hPa | 27.18 mm | - | - | - |
| 1777610650 | 25.56° C | 72% | 1015.3 hPa | 26.16 mm | - | - | - |
| 1777610440 | 25° C | 72% | 1015.2 hPa | 25.65 mm | - | - | - |
| 1777610349 | 25° C | 72% | 1015.3 hPa | 25.15 mm | - | - | - |
| 1777610130 | 24.44° C | 73% | 1015.3 hPa | 23.88 mm | - | - | - |
| 1777610049 | 24.44° C | 73% | 1015.3 hPa | 23.37 mm | - | - | - |
| 1777609750 | 24.44° C | 73% | 1015.4 hPa | 22.61 mm | - | - | - |
| 1777609511 | 24.44° C | 72% | 1015.4 hPa | 21.84 mm | - | - | - |
| 1777609449 | 24.44° C | 72% | 1015.4 hPa | 21.08 mm | - | - | - |
| 1777609200 | 25° C | 72% | 1015.4 hPa | 20.07 mm | - | - | - |
| 1777609149 | 25° C | 72% | 1015.5 hPa | 19.3 mm | - | - | - |
| 1777608891 | 25° C | 71% | 1015.5 hPa | 19.3 mm | - | - | - |
| 1777608849 | 25° C | 72% | 1015.4 hPa | 19.3 mm | - | - | - |
| 1777608580 | 24.44° C | 73% | 1015.5 hPa | 18.8 mm | - | - | - |
| 1777608548 | 24.44° C | 73% | 1015.5 hPa | 18.8 mm | - | - | - |
| 1777608270 | 24.44° C | 72% | 1015.6 hPa | 20.07 mm | - | - | - |
* Rain latest hour (hover to see other rain measurements)
** Current wind speed in m/s (hover to see current wind gust speed)